Voltar ao catálogo

OPS 4682 DEB

AtivoPO
NORAD 51494·DEBRIS·🇺🇸 United States

Lançado Apr 3, 1965 de Vandenberg Space Force Base

Loading…

Próximas Passagens (próximas 24 horas)

TLE

AtualizadoSource: Space-Track

Época: Sep 13, 2026, 06:55 UTC

1 51494U 65027GE  26256.28831780 -.00000149  00000-0 -54185-3 0  9993
2 51494  90.2506  11.0197 0031130 259.5810 128.3333 12.96608114708808

Acompanhe OPS 4682 DEB em tempo real com AllMySat

Download on the App Store